RH
16 16 17 17 18 18 18 19 20 20 21 21 21 22 24 26 29 33 35 35 34 33 31 28 25 23 22 21 22 23 25 28 30 32 31 30 28 26 24 23 22 23 22 20 19 18 18 19 19 20 20 21 21 23 26 28 31 31 34 33 32 36 30 26 30 30 29 29 30 33 34 38 37 35 33 31 31 31 32 33 34 36 37 39 40 42 43 43
18 19 19 18 18 18 18 18 18 18 18 18 18 19 19 20 20 22 24 25 26 26 27 27 26 23 21 20 19 18 18 18 19 22 23 24 25 24 23 22 21 21 20 20 19 18 18 18 19 19 20 20 20 21 22 24 26 30 35 31 29 32 27 25 27 27 26 26 28 30 32 35 35 33 31 30 30 30 31 32 33 35 36 37 40 42 43 42
21 21 21 20 19 19 19 18 18 17 17 18 19 19 20 20 19 19 19 20 20 20 21 22 23 22 21 20 19 19 18 18 17 19 19 18 18 18 18 17 18 18 18 18 18 18 18 17 18 19 19 19 19 21 22 23 25 27 30 29 28 28 26 28 29 28 27 26 28 29 30 32 32 32 30 30 30 29 30 30 32 34 34 36 38 41 42 43
22 23 22 22 21 21 20 19 19 19 20 21 22 23 24 24 23 23 22 22 21 21 20 20 20 20 21 21 21 21 20 20 21 21 21 20 19 18 18 18 18 18 19 18 18 19 19 18 18 19 19 19 18 19 21 22 23 25 28 28 25 24 26 27 29 30 28 26 28 28 29 31 31 32 31 31 32 31 30 30 32 33 34 35 37 40 41 41
24 25 24 24 23 23 22 21 21 23 25 25 26 28 29 30 28 27 27 26 26 25 24 23 22 20 21 21 22 22 23 25 25 23 22 22 22 21 21 20 20 21 21 21 21 20 20 20 19 19 19 19 18 19 20 21 23 25 27 27 25 23 26 27 27 28 28 27 27 28 29 30 31 31 31 32 34 34 31 31 32 33 34 35 37 38 39 39
26 26 27 26 26 24 23 22 23 25 26 27 29 31 31 31 29 28 28 27 27 27 26 25 24 23 22 23 24 23 25 29 28 26 26 25 24 23 23 22 22 22 22 22 22 21 20 20 19 19 19 19 19 20 20 21 22 25 27 27 26 24 26 28 28 28 27 27 28 29 30 30 31 32 32 33 33 33 31 32 32 32 33 35 36 37 38 38
27 27 29 29 26 24 22 23 24 25 25 27 29 30 29 28 27 26 26 25 25 26 25 25 25 24 24 24 25 25 26 28 28 28 28 27 27 26 25 24 24 23 23 23 24 24 23 23 23 22 22 23 24 24 25 25 24 28 30 31 30 29 30 30 29 30 28 29 31 31 31 32 33 33 34 34 34 33 33 33 33 32 33 33 35 36 38 39
28 28 29 29 26 24 23 24 25 25 26 29 30 29 29 28 27 26 25 24 23 23 23 24 25 25 25 25 26 26 27 28 29 29 28 28 28 27 26 25 25 26 26 27 27 27 27 26 26 24 26 27 26 26 27 27 27 31 33 32 33 32 32 32 31 32 31 32 33 33 35 36 35 35 36 36 35 35 35 35 34 34 34 34 35 37 38 39
29 28 28 27 26 25 25 25 25 26 29 31 30 29 30 29 27 25 23 22 22 23 23 24 25 25 25 25 25 26 27 29 29 29 28 27 27 27 26 26 25 25 25 25 24 24 24 23 23 21 23 24 24 25 24 24 25 28 29 30 31 31 31 31 32 33 34 35 34 35 38 38 37 37 37 37 37 37 37 37 37 37 37 38 38 38 38 38
30 28 27 27 27 26 25 24 24 27 32 32 30 29 29 27 24 20 19 20 21 23 24 25 25 24 24 24 24 25 26 27 27 26 26 25 25 24 23 22 20 20 20 19 18 18 18 18 18 18 19 20 22 23 24 24 25 26 27 28 29 29 30 30 32 33 34 35 35 36 39 37 37 38 38 39 39 40 40 41 42 43 43 43 43 41 40 39
30 27 27 29 29 26 24 23 26 30 32 31 29 28 27 24 20 18 19 19 19 21 21 23 22 22 23 22 23 25 25 24 24 23 22 21 20 19 19 18 17 17 18 17 16 16 16 17 17 17 17 19 21 22 23 25 25 25 26 28 28 28 29 30 31 32 34 37 36 35 38 37 37 39 41 41 42 43 44 46 48 49 49 48 47 45 43 42
30 28 29 30 27 23 21 22 27 30 30 28 27 26 24 22 20 20 21 21 21 21 20 21 20 21 21 20 22 23 22 21 21 19 18 18 17 17 17 17 18 18 18 17 17 17 17 17 16 17 17 18 21 23 23 23 23 23 24 26 27 28 30 29 30 31 32 36 34 34 36 38 40 40 40 41 41 44 45 46 47 46 45 42 41 39 36 34
29 28 28 27 22 17 17 22 26 27 25 24 24 23 22 21 20 21 22 24 24 22 21 20 19 19 18 18 19 18 17 16 16 15 15 15 15 16 16 17 17 17 17 17 18 18 17 17 16 16 17 18 21 21 21 21 21 22 24 27 28 28 30 30 29 29 30 32 32 31 34 38 40 38 36 38 39 41 42 41 40 38 35 32 30 28 27 26
26 24 23 20 16 15 20 25 26 24 22 21 21 20 20 20 20 21 23 24 23 21 20 18 17 17 16 16 16 15 14 14 14 13 13 14 14 14 14 15 15 15 16 16 16 16 16 16 14 15 17 18 19 20 22 24 25 26 27 29 32 31 29 30 31 30 30 31 32 32 34 38 39 37 36 37 39 39 40 38 35 33 30 28 26 25 25 24
23 21 19 16 15 19 25 27 26 23 21 20 19 18 18 19 20 20 21 21 19 18 18 17 16 16 15 15 15 14 14 13 14 14 14 15 15 15 14 13 12 12 13 13 13 13 14 13 14 16 17 17 17 20 25 29 31 33 31 29 34 35 31 31 32 32 32 32 33 34 37 40 41 40 38 38 39 38 37 35 33 32 30 27 25 25 24 24
22 20 17 16 20 25 28 27 25 22 20 19 17 17 18 18 18 18 19 18 17 17 16 15 15 15 15 15 14 15 15 15 16 16 16 15 14 15 13 12 11 11 11 12 12 12 13 13 14 16 16 17 20 22 25 29 30 34 35 32 32 34 33 32 33 33 34 34 35 37 40 42 43 41 38 37 37 36 35 34 32 31 28 25 23 23 22 20
21 19 18 22 27 29 27 25 24 22 20 19 18 18 18 17 17 17 18 18 17 16 14 14 14 15 15 15 15 15 16 16 16 15 14 13 13 12 12 12 12 12 12 12 12 12 12 13 15 16 17 22 26 26 25 27 27 28 33 34 31 33 33 32 32 33 35 36 38 41 43 43 44 41 36 35 35 34 33 32 30 28 24 22 21 20 19 18
22 21 24 29 31 30 26 23 22 22 21 20 19 17 17 17 17 17 17 16 16 15 14 14 15 16 16 15 15 15 15 14 13 13 12 12 12 12 12 13 13 13 12 12 12 13 13 14 17 20 23 26 29 31 29 29 28 26 30 32 31 33 34 34 34 36 39 41 43 44 42 43 43 39 35 33 33 32 31 30 29 26 21 19 19 18 17 17
23 25 29 31 30 28 26 22 22 23 21 19 17 16 16 16 15 15 15 15 15 15 15 14 15 17 17 15 14 13 13 12 12 12 13 13 13 13 12 12 12 11 12 14 14 15 16 17 21 24 27 29 30 33 33 31 31 31 33 34 33 33 35 36 37 39 43 44 46 46 42 41 40 37 35 33 32 31 29 28 28 25 20 17 17 16 16 16
25 28 29 29 28 27 25 23 23 22 19 17 16 16 15 14 15 16 15 15 15 15 15 15 16 16 16 14 12 12 12 12 12 12 12 13 13 12 11 11 11 11 15 19 18 17 17 21 26 26 26 29 31 34 35 33 34 34 35 36 36 36 36 36 38 41 43 42 44 45 42 40 37 35 34 30 28 28 26 26 26 23 19 16 16 16 16 15
28 29 29 28 25 24 24 22 21 20 18 16 15 15 14 14 16 16 16 16 16 15 15 15 16 15 15 14 12 11 12 11 11 11 11 11 11 11 11 13 14 15 18 21 19 16 18 22 25 24 26 28 30 34 35 33 34 34 35 35 36 38 36 37 39 41 41 37 39 42 38 34 33 32 29 25 25 24 23 23 23 21 18 16 16 15 15 15
30 30 29 26 23 24 22 20 19 19 18 16 14 13 14 13 14 14 15 17 16 15 15 15 14 13 14 14 12 11 11 11 10 10 10 10 11 11 12 15 19 19 21 22 20 18 20 22 22 22 25 26 27 30 30 31 32 32 32 33 33 35 35 36 37 39 38 33 33 36 32 30 30 30 27 24 24 23 22 21 21 20 19 17 16 16 15 15
29 30 28 25 24 22 20 19 19 18 17 15 13 12 13 13 13 14 14 16 16 15 15 14 12 11 12 13 12 11 10 11 12 11 11 11 11 12 13 15 19 20 21 21 20 19 19 19 20 22 23 23 24 26 28 28 29 30 31 32 30 29 29 28 29 33 32 28 28 30 29 29 30 30 28 24 23 23 22 22 22 22 20 18 17 16 16 16
28 28 25 23 23 21 20 20 18 18 16 15 12 11 12 11 12 14 13 15 16 16 15 14 13 11 11 11 11 11 10 11 13 12 12 13 13 13 14 15 19 20 19 20 19 19 17 16 19 21 21 22 21 23 27 27 27 29 31 30 26 24 24 23 24 28 28 26 28 28 27 26 26 28 26 24 25 24 24 24 23 22 21 20 19 17 18 18
28 26 23 22 21 20 21 19 17 17 15 13 12 11 11 10 12 13 13 16 17 16 15 13 13 12 10 11 11 12 12 12 13 13 13 15 15 15 16 16 18 18 19 19 17 17 16 15 18 18 18 20 19 20 24 24 24 23 22 21 19 21 24 25 25 26 26 25 26 27 25 22 22 25 25 25 27 26 24 24 22 21 21 20 19 19 19 20
28 25 22 21 22 21 20 18 15 14 13 12 11 11 10 10 12 12 14 22 21 16 15 13 12 12 10 10 11 12 14 14 14 13 13 14 15 15 17 20 18 17 19 20 18 17 16 15 16 15 15 15 15 16 18 23 22 16 13 17 21 23 25 26 26 24 24 25 26 26 25 23 19 19 22 26 27 26 24 24 21 21 21 20 19 18 19 20
26 24 22 23 23 21 19 16 14 13 12 11 11 11 9 9 12 10 15 25 21 15 16 14 11 11 11 11 11 13 13 14 14 13 13 14 15 14 18 23 22 20 21 20 17 14 16 16 14 14 13 13 13 11 14 19 16 9 12 19 22 22 23 26 27 26 27 27 28 29 26 27 23 16 21 28 26 25 24 23 22 20 21 20 19 18 18 19
22 21 20 21 21 18 16 15 14 12 11 11 11 10 10 10 11 12 18 21 16 15 17 14 11 12 12 12 12 13 14 14 14 14 13 13 14 13 17 23 24 23 21 20 17 12 16 17 13 13 13 12 11 10 12 15 10 10 17 21 21 22 25 27 28 29 32 29 28 30 26 29 28 17 21 28 23 21 21 20 21 21 20 20 18 17 16 17
19 18 17 17 15 14 13 13 13 12 10 10 9 9 11 10 9 14 22 19 14 17 17 13 13 13 13 13 14 13 14 14 14 13 13 13 13 12 17 20 21 22 19 19 19 14 15 16 14 14 13 12 11 11 16 14 9 13 19 20 20 22 23 25 28 29 33 34 28 28 26 27 27 15 15 23 21 19 18 18 20 19 19 19 16 15 15 16
16 15 14 12 11 11 11 11 11 9 9 9 9 11 10 10 16 21 18 14 15 17 16 13 14 15 16 18 18 17 16 15 14 13 12 13 12 12 17 17 18 21 20 20 19 15 15 16 16 15 13 13 13 14 18 15 11 14 17 15 13 15 16 22 30 29 34 40 29 24 25 26 26 17 11 16 18 19 17 16 19 18 17 15 14 14 14 16
14 12 10 9 9 8 9 9 8 7 8 8 9 11 9 13 25 25 13 13 18 17 16 17 18 20 22 22 20 19 20 18 15 15 17 17 16 16 19 18 19 21 20 19 17 15 14 14 16 15 13 14 13 12 16 15 14 13 13 11 9 12 13 17 26 27 33 38 25 20 24 27 29 20 10 13 17 20 20 16 17 17 14 12 12 13 14 16
12 9 8 8 7 8 8 7 7 7 7 9 10 10 12 16 20 17 14 16 17 17 18 19 21 24 25 24 22 22 23 21 18 20 23 23 23 22 22 23 23 19 14 16 16 14 13 13 14 13 13 14 10 9 12 13 14 12 11 14 14 15 13 16 24 23 27 29 19 18 22 24 26 15 8 11 13 17 20 16 15 14 12 12 12 14 15 17
9 8 8 7 7 8 8 6 7 6 7 11 9 11 19 19 12 12 18 17 15 18 20 21 24 25 24 22 22 23 22 20 20 20 22 24 24 23 23 25 25 20 17 19 19 16 13 12 13 11 12 13 10 9 9 10 12 11 12 15 16 15 12 19 28 20 17 19 14 18 21 20 19 12 11 13 9 12 15 14 13 12 12 13 13 14 16 17
8 10 9 8 7 7 7 7 7 7 9 11 11 13 16 14 11 14 18 17 19 21 21 24 25 22 21 21 21 23 21 19 21 22 22 23 24 23 23 23 23 24 26 23 19 17 12 10 11 10 11 13 13 12 9 10 12 14 14 12 14 17 13 17 25 19 16 21 19 18 20 20 18 15 15 14 11 13 13 14 15 13 13 14 14 15 15 14
9 11 9 8 7 6 7 8 7 8 10 9 15 19 13 10 14 16 17 19 22 22 21 25 24 19 20 22 22 22 19 17 22 25 24 23 23 23 22 22 24 25 23 19 19 20 15 11 14 14 14 15 15 15 13 10 9 13 15 10 10 18 17 18 25 22 22 31 32 25 21 21 17 13 14 15 15 15 14 16 19 16 15 16 16 14 12 11
10 10 10 9 8 7 8 8 8 10 9 11 19 21 16 15 15 16 20 21 21 21 19 21 22 17 18 21 22 23 19 17 20 23 23 23 23 24 23 23 25 24 20 18 21 23 18 14 17 18 16 16 16 16 14 11 9 10 12 10 10 15 21 22 23 26 29 32 32 27 21 18 14 11 13 16 17 17 16 18 19 16 16 18 16 12 10 10
10 9 9 9 9 9 8 8 10 11 8 13 20 19 18 19 17 20 27 23 20 23 19 18 18 17 17 19 20 24 22 17 19 21 21 21 20 22 26 24 22 23 23 21 21 24 22 17 19 21 17 16 18 17 15 13 12 11 10 13 14 15 22 25 24 31 35 33 29 25 21 18 15 13 14 13 13 14 15 19 19 18 19 19 15 10 10 11
9 8 8 8 9 9 8 9 11 11 9 17 25 22 20 21 19 22 27 23 23 24 20 19 18 18 21 19 17 24 23 17 20 23 21 18 18 21 25 22 19 23 26 23 20 23 23 18 18 22 19 19 20 18 18 15 13 12 11 14 15 15 20 24 25 29 30 31 33 30 24 20 16 16 14 9 9 11 12 16 18 18 18 17 12 9 11 11
10 8 6 8 8 9 10 10 10 9 10 19 25 21 20 22 21 22 24 23 23 21 19 20 20 20 22 20 18 23 23 19 21 23 19 17 18 19 22 20 19 22 24 23 21 24 23 17 16 19 20 22 21 19 21 19 15 14 14 16 18 20 22 22 23 25 24 28 34 32 28 20 15 18 16 10 9 11 12 14 17 17 13 11 11 10 11 11
10 8 7 7 7 9 10 9 9 12 16 20 22 21 20 21 22 23 24 23 22 19 19 22 22 21 22 23 22 23 24 24 24 23 20 20 20 19 21 22 20 22 24 21 19 24 23 17 17 19 18 20 21 21 22 19 18 19 18 20 21 21 24 22 22 25 25 29 36 39 32 17 11 17 16 12 12 13 13 15 17 15 10 9 11 11 12 15
8 8 7 7 8 8 8 9 14 21 24 22 22 23 22 19 21 24 25 24 22 19 20 24 23 21 23 23 21 22 26 27 27 25 23 22 20 17 19 22 22 23 23 19 18 22 20 17 20 20 17 17 19 22 24 22 22 24 24 25 26 25 27 27 29 32 30 30 35 40 30 14 13 21 19 17 19 18 17 18 18 14 10 10 12 14 17 21
7 9 8 6 8 7 7 14 21 25 25 23 21 22 21 19 20 22 23 24 23 20 20 23 25 25 25 24 23 25 26 25 27 26 23 23 21 18 19 22 23 24 23 22 21 21 19 19 21 19 16 17 18 22 26 25 23 24 25 26 29 31 30 30 35 38 36 34 36 42 38 20 16 24 24 23 24 23 22 22 21 17 14 15 17 19 24 27
7 9 7 7 8 7 8 17 22 24 25 23 22 21 21 21 20 20 22 22 21 20 21 23 24 22 22 23 24 25 23 22 24 24 24 27 26 22 23 23 25 27 26 23 22 21 22 23 21 20 19 17 18 22 25 25 24 25 28 29 29 31 32 34 39 40 38 36 36 42 41 23 18 27 27 25 27 27 26 25 25 23 20 21 23 25 28 29
6 7 7 8 8 7 11 17 21 24 24 20 19 20 20 21 21 21 21 21 21 21 22 25 23 20 22 25 25 24 21 19 20 22 25 29 27 24 24 25 27 28 24 23 23 21 23 24 20 20 20 17 21 26 24 23 26 28 33 34 29 32 37 38 39 40 39 38 36 38 35 21 21 30 30 31 35 33 29 26 26 28 26 25 26 27 29 30
6 7 7 8 7 7 11 15 19 24 25 20 18 19 20 20 21 21 21 21 22 21 20 22 22 22 25 27 25 25 24 19 19 23 25 27 27 26 25 27 29 27 24 27 26 23 25 26 21 19 19 17 19 22 20 22 26 27 31 34 31 32 34 34 36 40 41 41 39 37 32 21 19 27 30 34 36 33 30 29 28 29 29 28 28 29 30 32
7 8 8 9 8 9 12 13 15 20 23 22 18 19 21 21 21 22 21 21 21 21 21 21 23 24 25 26 27 27 28 24 23 25 26 28 28 27 26 29 29 26 25 27 27 27 31 32 27 23 22 21 18 17 19 23 24 22 25 32 35 36 34 34 40 41 39 42 39 33 31 26 22 27 32 32 32 32 32 31 30 31 30 30 31 31 33 35
8 11 12 10 9 10 13 13 13 16 19 20 17 17 21 22 22 21 22 22 21 23 23 23 24 24 24 26 28 28 29 29 27 27 28 30 31 28 27 30 31 28 26 26 26 28 31 31 31 30 28 25 23 22 25 27 24 22 24 27 34 40 39 37 39 35 34 41 37 29 32 35 29 30 34 33 33 34 34 33 33 33 33 34 35 37 38 39
9 12 12 11 11 14 15 13 14 18 20 21 22 21 23 24 23 21 22 23 24 24 24 24 25 26 27 26 25 26 28 28 27 28 29 32 33 30 28 30 32 31 29 28 27 27 28 27 29 31 30 30 31 28 30 33 30 28 29 28 31 38 41 38 36 32 35 40 36 30 34 36 33 33 35 35 35 36 36 36 37 37 38 39 40 42 42 41
11 12 12 12 13 16 18 15 15 20 22 25 27 25 24 25 24 24 25 26 26 26 25 24 24 28 32 30 25 26 28 24 22 26 30 33 33 32 29 29 31 34 32 31 30 27 26 29 33 33 30 30 34 34 34 36 36 34 34 33 33 36 39 38 35 33 37 41 38 36 37 35 34 37 37 37 39 40 40 40 41 41 41 42 43 44 43 42
10 10 11 13 15 17 19 17 17 21 22 23 23 22 25 27 24 25 27 26 26 28 27 25 26 30 35 33 28 28 29 25 21 23 29 32 31 33 34 30 33 37 34 32 33 28 27 34 39 37 30 27 32 36 36 37 39 37 34 33 33 35 37 38 36 36 39 42 41 41 40 37 36 39 40 41 43 43 44 44 43 43 44 45 46 45 44 44
9 9 9 12 17 19 19 18 19 22 21 20 21 22 26 27 25 25 26 24 25 28 28 28 30 34 35 35 33 30 28 27 25 24 27 29 28 30 31 29 34 39 36 35 35 31 30 34 37 37 34 27 28 34 34 34 37 39 36 32 32 35 37 38 37 37 40 42 42 43 42 39 38 40 42 43 44 45 46 46 45 46 48 49 48 46 46 47
9 9 9 11 15 19 20 20 20 18 17 19 21 24 26 25 23 23 22 22 26 28 28 28 29 32 35 36 34 31 28 28 28 28 29 30 29 29 29 28 31 36 38 39 38 35 35 36 37 39 39 34 31 33 32 32 35 36 35 34 34 34 37 37 35 35 37 39 40 40 38 35 37 41 42 42 44 46 46 47 48 49 50 50 50 49 49 49